Starlink 6182

operational
NORAD ID: 56878 Int'l Des: 2023-083 Owner: SPXS Country: US Constellation: starlink
LEOCIRCULAR

Über Starlink 6182

Beschreibung wird geladen...

Live-Position

3D-Globus wird geladen...

Nächste Überflüge

Höhenverlauf

Altitude vs Time

uPlot chart will show altitude changes over time

Zweizeiliger Elementsatz

1 56878U 23083C 26034.96987219 .00001725 00000-0 14269-3 0 9996
2 56878 43.0008 265.3847 0000773 239.4153 120.6613 15.02540505146591
Epoch: 3. Feb. 2026 • Age: 28 hours

Aktueller Status

Höhe 564.1 km
Geschwindigkeit 7.58 km/s
Subsatellitenpunkt -23.02°S, 79.59°W
Startdatum 12. Juni 2023
Alter 2.6 years
Typ internet

Technische Details

Klassifizierung Payload
Masse 305.00 kg
Trockenmasse 290.00 kg
Gesamtmasse 305.00 kg
Länge 0.20 m
Durchmesser 2.80 m
Spannweite 9.00 m
Form Box + pan
Hersteller SPXS
Bus-Typ Starlink
Phasenstatus In Orbit
Besitzer/Staat SPXS/US

Große Konstellationen

Loading constellations...